Location: Chmeln�
(49.6483°N, 14.9871°E)
Time: 22:34:02
(UTC+00:00)

Lacrosse 5 rocket - Pass Details

Date: 18 September 2020
Orbit: 460 x 636 km, 57.0° (Epoch: 31 October)

Event Time Altitude Azimuth Distance (km) Brightness Sun altitude
Rises 21:27:35 0° 301° (WNW) 2,856 5.7 -35.7°
Reaches altitude 10° 21:29:53 10° 307° (NW) 1,974 4.8 -35.8°
Enters shadow 21:30:52 16° 311° (NW) 1,618 4.3 -35.9°
